Regional Weather Roundup
Issued by NWS Boston, MA

Current Version | Previous Version | Text Only | Print | Product List | Glossary Off
Versions: 1 2 3 4 5 6 7 8 9 10 11 12 13 14 15 16 17 18 19 20 21 22 23 24 25 26 27 28 29 30 31 32 33 34 35 36 37 38 39 40 41 42 43 44 45 46 47 48 49 50
000 ASUS41 KBOX 310810 RWRBOX REGIONAL WEATHER ROUNDUP NATIONAL WEATHER SERVICE TAUNTON MA 400 AM EDT SUN AUG 31 2014 NOTE: "FAIR" INDICATES FEW OR NO CLOUDS BELOW 12,000 FEET WITH NO SIGNIFICANT WEATHER AND/OR OBSTRUCTIONS TO VISIBILITY. THE FOLLOWING OBSERVATION LOCATIONS DO NOT REPORT PRESENT WEATHER...PROVINCETOWN... SMITHFIELD...BLOCK ISLAND...KEENE...AND OXFORD. MAZALL-310900- EASTERN MASSACHUSETTS CITY SKY/WX TMP DP RH WIND PRES REMARKS BOSTON CLOUDY 69 64 84 SW10 30.10F BEVERLY CLOUDY 68 62 81 SW8G17 30.08F LAWRENCE CLOUDY 67 63 87 SW9 30.10F BEDFORD CLOUDY 67 63 87 S8 30.08F BLUE HILL N/A 66 64 93 SW17G25 30.11F NORWOOD CLOUDY 69 64 84 S8 30.10F MARSHFIELD CLOUDY 70 64 83 SW7G17 30.13F PLYMOUTH CLOUDY 68 61 78 SW9 30.13F TAUNTON CLOUDY 71 64 78 SW9G17 30.12F NEW BEDFORD CLOUDY 69 65 86 SW10 30.13S $$ MAZALL-310900- CAPE COD AND THE ISLANDS CITY SKY/WX TMP DP RH WIND PRES REMARKS FALMOUTH CLOUDY 70 64 83 SW14 30.14F HYANNIS CLOUDY 71 65 81 SW12 30.13F CHATHAM CLOUDY 69 65 86 SW7 30.16F PROVINCETOWN CLOUDY 68 63 83 SW12 30.13F NANTUCKET CLOUDY 67 65 93 S7 30.16F MARTHAS VNYRD CLOUDY 67 66 97 SW9 30.15F $$ MAZALL-310900- CENTRAL AND WESTERN MASSACHUSETTS CITY SKY/WX TMP DP RH WIND PRES REMARKS WORCESTER CLOUDY 67 63 87 SW16 30.12F FITCHBURG CLOUDY 72 63 73 VRB6 30.09F ORANGE CLOUDY 69 64 84 S6 30.09F SPRINGFIELD CLOUDY 70 64 83 S10 30.09F WESTFIELD CLOUDY 71 65 81 S8 30.09F NORTH ADAMS CLOUDY 67 63 87 CALM 30.09F PITTSFIELD MOCLDY 68 63 84 SW8 30.10S $$ RIZALL-310900- RHODE ISLAND CITY SKY/WX TMP DP RH WIND PRES REMARKS PROVIDENCE CLOUDY 69 64 84 S7 30.14S NEWPORT CLOUDY 71 64 78 S8 30.14F BLOCK ISLAND CLOUDY 70 63 78 S12 30.15S SMITHFIELD CLOUDY 66 59 77 S6 30.12F WESTERLY CLOUDY 71 66 84 SW10 30.14F $$ CTZALL-310900- CONNECTICUT CITY SKY/WX TMP DP RH WIND PRES REMARKS BRADLEY INTL CLOUDY 72 65 78 S9 30.10F HARTFORD CLOUDY 72 65 78 S7 30.11F BRIDGEPORT CLOUDY 74 68 81 SW10 30.13F DANBURY CLOUDY 71 64 78 S7 30.14F GROTON CLOUDY 70 67 90 SW9 30.13F NEW HAVEN CLOUDY 74 68 81 SW9 30.13F CHESTER CLOUDY 70 66 88 S6 30.15S MERIDEN CLOUDY 72 66 81 S7 30.12F WILLIMANTIC CLOUDY 70 65 84 VRB5 30.13F OXFORD CLOUDY 70 64 83 SW5 30.15F $$ MEZ002-015-021-024-NHZ003-005-008-011-012-014-VTZ005-008-310900- NORTHERN NEW ENGLAND CITY SKY/WX TMP DP RH WIND PRES REMARKS PORTLAND ME MOCLDY 62 59 90 SW5 30.05F BANGOR ME PTCLDY 61 58 90 S8 30.02F CONCORD NH PTCLDY 62 60 93 S7 30.06F MANCHESTER NH CLOUDY 67 62 84 S7 30.06F NASHUA NH CLOUDY 67 63 87 CALM 30.08F PORTSMOUTH NH MOCLDY 66 62 85 S7 30.06F JAFFREY NH CLOUDY 67 63 87 SW7 30.11F KEENE NH CLOUDY 64 55 72 CALM 30.10S BURLINGTON VT CLOUDY 72 61 68 S18G28 29.97S MT. WASHINGTON NOT AVBL $$ NYZ052-076-310900- EASTERN NEW YORK CITY SKY/WX TMP DP RH WIND PRES REMARKS ALBANY MOCLDY 70 63 78 SE9 30.06F NEW YORK CITY CLOUDY 73 64 73 SW7 30.12F $$ ANZALL-310900- MARINE OBSERVATIONS STATION/POSITION TIME TEMP WIND PRES VSBY WAVE AIR SEA DIR/SP/G HT/PER (UTC) (F) (DEG/KT/KT) (MB) (MI) (FT/S) BOSTON BUOY 0750 67 67 200/ 14/ 16 1019.3F 3/ 8 BUZZARDS BAY 0700 190/ 15/ 16 1021.5F NANTUCKET SOUND 0750 70 71 200/ 14/ 16 1020.7F 1/ 3 MASS BAY-STELLWA 0704 66 64 200/ 14/ 16 N/A 1 7/8 3/ 8 ISLE OF SHOALS 0800 66 200/ 16/ 18 1017.7F S OF BLOCK IS 0708 67 N/A 2/ 8 $$ ......................KEY......................... SKY/WX - SKY CONDITION/PRESENT WEATHER TMP - TEMPERATURE IN FAHRENHEIT DWPT - DEWPOINT IN FAHRENHEIT RH - RELATIVE HUMIDITY IN PERCENT WIND - DIRECTION AND SPEED IN MPH PRES - MEAN SEA LEVEL PRESSURE IN INCHES OF HG WCI - WIND CHILL INDEX VSB - VISIBILITY IN MILES HX - HEAT INDEX TC - TEMPERATURE IN CELSIUS VRB - VARIABLE WIND DIRECTION N/A - NOT AVAILABLE

USA.gov is the U.S. government's official web portal to all federal, state and local government web resources and services.